Regional Weather Roundup
Issued by NWS Cleveland, OH

Home | Current Version | Previous Version | Graphics & Text | Print | Product List | Glossary On
Versions: 1 2 3 4 5 6 7 8 9 10 11 12 13 14 15 16 17 18 19 20 21 22 23 24 25 26 27 28 29 30 31 32 33 34 35 36 37 38 39 40 41 42 43 44 45 46 47 48 49 50
860
ASUS41 KCLE 232310
RWRCLE
OHIO REGIONAL WEATHER ROUNDUP
NATIONAL WEATHER SERVICE WILMINGTON, OH
600 PM EST MON JAN 23 2017

NOTE: "FAIR" INDICATES FEW OR NO CLOUDS BELOW 12,000 FEET WITH NO
SIGNIFICANT WEATHER AND/OR OBSTRUCTIONS TO VISIBILITY.

OHZ001>008-015>018-024>027-034-035-043-044-240000-
   NORTHWEST OHIO

CITY           SKY/WX    TMP DP  RH WIND       PRES   REMARKS
DEFIANCE       LGT RAIN  43  41  93 N8        29.67R
FINDLAY        CLOUDY    40  37  89 N13       29.63R FOG
TOLEDO EXPRESS CLOUDY    43  43 100 NE5       29.66R FOG
TOLEDO EXEC    CLOUDY    41  41 100 NE3       29.67R FOG
LIMA           CLOUDY    39  39 100 N10       29.63R FOG
$$

OHZ009>014-019>023-028>033-038-089-240000-
   NORTHEAST OHIO

CITY           SKY/WX    TMP DP  RH WIND       PRES   REMARKS
CLE-HOPKINS    DRIZZLE   41  38  89 NE8       29.62R FOG
CLE-LAKEFRONT  CLOUDY    39  38  96 NE12      29.60R FOG
CUY CO. ARPT   CLOUDY    43  41  93 E12       29.61S
LORAIN-ELYRIA  CLOUDY    38  36  92 NE13      29.61R FOG
ASHTABULA      LGT RAIN  41  39  93 NE9       29.63R
AKRON-CANTON   LGT RAIN  44  40  85 E9        29.58R
WOOSTER        CLOUDY    43  39  86 E9        29.58R
MANSFIELD      CLOUDY    42  42 100 N8        29.58R FOG
YOUNGSTOWN     LGT RAIN  44  41  89 E7        29.60R
$$

OHZ042-051>053-060>062-070>072-077>081-240000-
  SOUTHWEST OHIO

CITY           SKY/WX    TMP DP  RH WIND       PRES   REMARKS
CINC-COVINGTON LGT RAIN  47  45  93 NW20      29.60R FOG
CINC-LUNKEN    LGT RAIN  48  46  93 N14G20    29.61R
HAMILTON       LGT RAIN  47  45  93 NW8       29.62R
DAYTON         LGT RAIN  42  41  96 N15       29.62R FOG
WRIGHT-PAT AFB CLOUDY    44  44 100 NW10      29.60R FOG
DAYTON GENERAL LGT RAIN  44  42  93 N13       29.59S FOG
WILMINGTON     LGT RAIN  46  45  96 N15       29.57R FOG
$$

OHZ036-037-039>041-045>050-054>059-063>069-073>076-082>088-240000-
  CENTRAL AND SOUTHEAST OHIO

CITY           SKY/WX    TMP DP  RH WIND       PRES   REMARKS
COLUMBUS       LGT RAIN  47  44  90 NE8       29.56R FOG
OSU AIRPORT    LGT RAIN  46  46 100 VRB5      29.57R FOG
BOLTON FIELD   DRIZZLE   46  46 100 NE7       29.56R
RICKENBACK AFB DRIZZLE   45  45 100 NE5       29.56R
NEWARK         CLOUDY    47  40  76 NE8       29.55R
MARION         CLOUDY    41  39  93 N12       29.60R FOG
LANCASTER      CLOUDY    47  44  90 NE7       29.56R FOG
ZANESVILLE     LGT RAIN  43  39  86 NE10      29.56R
NEW PHILLY     LGT RAIN  43  40  89 E9        29.59R
$$




USA.gov is the U.S. government's official web portal to all federal, state and local government web resources and services.